TimeCDT,TemperatureF,Dew PointF,Humidity,Sea Level PressureIn,VisibilityMPH,Wind Direction,Wind SpeedMPH,Gust SpeedMPH,PrecipitationIn,Events,Conditions,WindDirDegrees,DateUTC
12:56 AM,14.0,3.0,62,30.24,10.0,NNW,8.1,-,N/A,,Clear,330,2013-03-17 05:56:00
1:56 AM,10.9,-0.0,61,30.27,10.0,North,4.6,-,N/A,,Clear,360,2013-03-17 06:56:00
2:56 AM,10.0,-0.9,61,30.28,10.0,North,4.6,-,N/A,,Clear,10,2013-03-17 07:56:00
3:56 AM,8.1,-0.9,67,30.29,10.0,NNE,4.6,-,N/A,,Clear,20,2013-03-17 08:56:00
4:56 AM,5.0,-2.0,73,30.27,10.0,NE,4.6,-,N/A,,Clear,40,2013-03-17 09:56:00
5:56 AM,5.0,-2.0,73,30.28,10.0,Calm,Calm,-,N/A,,Clear,0,2013-03-17 10:56:00
6:56 AM,3.9,-2.9,73,30.29,10.0,NE,5.8,-,N/A,,Clear,40,2013-03-17 11:56:00
7:56 AM,1.9,-2.9,80,30.29,10.0,NE,5.8,-,N/A,,Clear,40,2013-03-17 12:56:00
8:56 AM,6.1,-2.9,67,30.30,10.0,ENE,10.4,-,N/A,,Clear,60,2013-03-17 13:56:00
9:56 AM,12.0,-0.0,59,30.28,10.0,East,9.2,-,N/A,,Clear,90,2013-03-17 14:56:00
10:56 AM,15.1,3.0,59,30.29,10.0,SSE,13.8,-,N/A,,Clear,150,2013-03-17 15:56:00
11:56 AM,17.1,3.9,56,30.27,10.0,SSE,12.7,-,N/A,,Clear,150,2013-03-17 16:56:00
12:56 PM,19.9,5.0,52,30.24,10.0,SE,9.2,-,N/A,,Clear,130,2013-03-17 17:56:00
1:56 PM,21.9,7.0,53,30.20,10.0,SE,10.4,-,N/A,,Overcast,140,2013-03-17 18:56:00
2:56 PM,24.1,6.1,46,30.16,10.0,SE,12.7,-,N/A,,Scattered Clouds,130,2013-03-17 19:56:00
3:56 PM,25.0,6.1,45,30.12,10.0,SE,13.8,-,N/A,,Clear,140,2013-03-17 20:56:00
4:56 PM,27.0,6.1,41,30.09,10.0,SE,10.4,-,N/A,,Scattered Clouds,140,2013-03-17 21:56:00
5:56 PM,27.0,7.0,43,30.07,10.0,ESE,12.7,-,N/A,,Mostly Cloudy,120,2013-03-17 22:56:00
6:56 PM,25.0,9.0,51,30.06,10.0,East,9.2,-,N/A,,Scattered Clouds,80,2013-03-17 23:56:00
7:56 PM,19.9,9.0,62,30.06,10.0,ENE,5.8,-,N/A,,Partly Cloudy,70,2013-03-18 00:56:00
8:56 PM,23.0,10.9,60,30.05,10.0,ESE,10.4,-,N/A,,Clear,120,2013-03-18 01:56:00
9:56 PM,23.0,12.0,63,30.02,10.0,ESE,11.5,-,N/A,,Clear,120,2013-03-18 02:56:00
10:56 PM,21.9,12.0,66,30.00,10.0,ESE,12.7,20.7,N/A,,Clear,120,2013-03-18 03:56:00
11:56 PM,21.0,12.0,68,29.99,10.0,ESE,15.0,-,N/A,,Mostly Cloudy,120,2013-03-18 04:56:00